Station OVIA2 - 9455500 - Seldovia, AK Image indicating link to RSS feed of recent meteorological observations for station OVIA2


Conditions at OVIA2 as of
(11:00 am AKDT)
1900 GMT on 05/24/2024:
     

Click on the graph icon in the table below to see a time series plot of the last five days of that observation.

5-day plot - Atmospheric Pressure Atmospheric Pressure (PRES):29.70 in
5-day plot - Pressure Tendency Pressure Tendency (PTDY):-0.04 in ( Falling )
5-day plot - Water Temperature Water Temperature (WTMP): 44.1 °F
NOS Water Level Observation Network Water Level
Previous observations
TIME
(AKDT)
5-day plot - Wind Direction
WDIR
 
5-day plot - Wind Speed
WSPD
kts
5-day plot - Wind Gust
GST
kts
5-day plot - Wave Height
WVHT
ft
5-day plot - Dominant Wave Period
DPD
sec
5-day plot - Average Wave Period
APD
sec
5-day plot - Mean Wave Direction
MWD
 
5-day plot - Atmospheric Pressure
PRES
in
5-day plot - Pressure Tendency
PTDY
in
5-day plot - Air Temperature
ATMP
°F
5-day plot - Water Temperature
WTMP
°F
5-day plot - Dew Point
DEWP
°F
5-day plot - Salinity
SAL
psu
5-day plot - Visibility
VIS
nmi
5-day plot - Tide (above MLLW)
TIDE
ft
2024-05-24 10:54 am-------29.70-- 44.1----
2024-05-24 10:48 am-------29.70-- 44.1----
2024-05-24 10:42 am-------29.71-- 44.1----
2024-05-24 10:36 am-------29.71-- 44.1----
2024-05-24 10:30 am-------29.71-- 44.1----
2024-05-24 10:24 am-------29.71-- 44.1----
2024-05-24 10:18 am-------29.71-- 44.1----
2024-05-24 10:12 am-------29.71-- 44.1----
2024-05-24 10:06 am-------29.71-- 44.1----
2024-05-24 10:00 am-------29.71-0.05- 44.1----
2024-05-24 09:54 am-------29.71-- 44.1----
2024-05-24 09:48 am-------29.72-- 44.1----
2024-05-24 09:42 am-------29.72-- 44.1----
2024-05-24 09:36 am-------29.72-- 44.1----
2024-05-24 09:30 am-------29.72-- 44.1----
2024-05-24 09:24 am-------29.72-- 44.1----
2024-05-24 09:18 am-------29.73-- 44.1----
2024-05-24 09:12 am-------29.73-- 44.1----
2024-05-24 09:06 am-------29.73-- 44.1----
2024-05-24 09:00 am-------29.74-0.04- 44.1----
2024-05-24 08:54 am-------29.74-- 44.1----
2024-05-24 08:48 am-------29.74-- 44.1----
2024-05-24 08:42 am-------29.74-- 44.1----
2024-05-24 08:36 am-------29.74-- 44.1----
2024-05-24 08:30 am-------29.74-- 44.1----
2024-05-24 08:24 am-------29.75-- 44.1----
2024-05-24 08:18 am-------29.75-- 44.1----
2024-05-24 08:12 am-------29.75-- 44.1----
2024-05-24 08:06 am-------29.75-- 44.1----
2024-05-24 08:00 am-------29.75-0.04- 43.9----
2024-05-24 07:54 am-------29.75-- 43.9----
2024-05-24 07:48 am-------29.75-- 43.9----
2024-05-24 07:42 am-------29.75-- 43.9----
2024-05-24 07:36 am-------29.75-- 43.9----
2024-05-24 07:30 am-------29.75-- 43.9----
2024-05-24 07:24 am-------29.75-- 43.9----
2024-05-24 07:18 am-------29.76-- 43.9----
2024-05-24 07:12 am-------29.76-- 43.9----
2024-05-24 07:06 am-------29.76-- 43.9----
2024-05-24 07:00 am-------29.76-0.04- 43.9----
2024-05-24 06:54 am-------29.77-- 43.9----
2024-05-24 06:48 am-------29.77-- 43.9----
2024-05-24 06:42 am-------29.77-- 43.9----
2024-05-24 06:36 am-------29.78-- 43.9----
2024-05-24 06:30 am-------29.78-- 43.9----
2024-05-24 06:24 am-------29.78-- 43.9----
2024-05-24 06:18 am-------29.78-- 43.9----
2024-05-24 06:12 am-------29.78-- 43.9----
2024-05-24 06:06 am-------29.78-- 43.9----
2024-05-24 06:00 am-------29.78-0.05- 43.9----
2024-05-24 05:54 am-------29.78-- 43.9----
2024-05-24 05:48 am-------29.78-- 43.9----
2024-05-24 05:42 am-------29.78-- 43.9----
2024-05-24 05:36 am-------29.78-- 43.9----
2024-05-24 05:30 am-------29.79-- 43.9----
2024-05-24 05:24 am-------29.79-- 43.9----
2024-05-24 05:18 am-------29.79-- 43.9----
2024-05-24 05:12 am-------29.79-- 43.9----
2024-05-24 05:06 am-------29.79-- 43.9----
2024-05-24 05:00 am-------29.79-0.06- 43.9----
2024-05-24 04:54 am-------29.79-- 43.9----
2024-05-24 04:48 am-------29.79-- 43.9----
2024-05-24 04:42 am-------29.79-- 43.9----
2024-05-24 04:36 am-------29.80-- 43.9----
2024-05-24 04:30 am-------29.80-- 43.9----
2024-05-24 04:24 am-------29.80-- 43.9----
2024-05-24 04:18 am-------29.80-- 43.9----
2024-05-24 04:12 am-------29.80-- 43.9----
2024-05-24 04:06 am-------29.80-- 43.9----
2024-05-24 04:00 am-------29.80-0.06- 43.9----
2024-05-24 03:54 am-------29.81-- 43.9----
2024-05-24 03:48 am-------29.81-- 43.9----
2024-05-24 03:42 am-------29.81-- 43.9----
2024-05-24 03:36 am-------29.82-- 43.9----
2024-05-24 03:30 am-------29.82-- 43.9----
2024-05-24 03:24 am-------29.82-- 43.9----
2024-05-24 03:18 am-------29.83-- 43.9----
2024-05-24 03:12 am-------29.83-- 43.9----
2024-05-24 03:06 am-------29.83-- 43.9----
2024-05-24 03:00 am-------29.83-0.05- 43.9----
2024-05-24 02:54 am-------29.83-- 43.9----
2024-05-24 02:48 am-------29.84-- 43.9----
2024-05-24 02:42 am-------29.84-- 43.9----
2024-05-24 02:36 am-------29.84-- 43.9----
2024-05-24 02:30 am-------29.84-- 43.9----
2024-05-24 02:24 am-------29.84-- 43.9----
2024-05-24 02:18 am-------29.84-- 43.9----
2024-05-24 02:12 am-------29.85-- 43.9----
2024-05-24 02:06 am-------29.85-- 43.9----
2024-05-24 02:00 am-------29.85-0.05- 43.9----
2024-05-24 01:54 am-------29.85-- 43.9----
2024-05-24 01:48 am-------29.85-- 43.9----
2024-05-24 01:42 am-------29.85-- 43.9----
2024-05-24 01:36 am-------29.85-- 43.9----
2024-05-24 01:30 am-------29.86-- 43.9----
2024-05-24 01:24 am-------29.86-- 43.9----
2024-05-24 01:18 am-------29.86-- 43.9----
2024-05-24 01:12 am-------29.86-- 43.9----
2024-05-24 01:06 am-------29.87-- 43.9----
2024-05-24 01:00 am-------29.87-0.04- 43.9----
2024-05-24 12:54 am-------29.87-- 43.9----
2024-05-24 12:48 am-------29.87-- 43.9----
2024-05-24 12:42 am-------29.87-- 43.9----
2024-05-24 12:36 am-------29.88-- 43.9----
2024-05-24 12:30 am-------29.88-- 43.9----
2024-05-24 12:24 am-------29.88-- 43.9----
2024-05-24 12:18 am-------29.88-- 43.9----
2024-05-24 12:12 am-------29.88-- 43.9----
2024-05-24 12:06 am-------29.88-- 43.9----
2024-05-24 12:00 am-------29.88-0.04- 43.9----
2024-05-23 11:54 pm-------29.88-- 43.9----
2024-05-23 11:48 pm-------29.88-- 43.9----
2024-05-23 11:42 pm-------29.88-- 43.9----
2024-05-23 11:36 pm-------29.89-- 43.9----
2024-05-23 11:30 pm-------29.89-- 43.9----
2024-05-23 11:24 pm-------29.89-- 43.9----
2024-05-23 11:18 pm-------29.89-- 43.9----
2024-05-23 11:12 pm-------29.89-- 43.9----
2024-05-23 11:06 pm-------29.90-- 43.9----
2024-05-23 11:00 pm-------29.90-0.03- 43.9----
2024-05-23 10:54 pm-------29.90-- 43.9----
2024-05-23 10:48 pm-------29.90-- 43.9----
2024-05-23 10:42 pm-------29.90-- 43.9----
2024-05-23 10:36 pm-------29.91-- 43.9----
2024-05-23 10:30 pm-------29.91-- 43.9----
2024-05-23 10:24 pm-------29.91-- 44.1----
2024-05-23 10:18 pm-------29.91-- 44.1----
2024-05-23 10:12 pm-------29.91-- 44.1----
2024-05-23 10:06 pm-------29.91-- 44.1----
2024-05-23 10:00 pm-------29.91-0.04- 44.1----
2024-05-23 09:54 pm-------29.91-- 43.9----
2024-05-23 09:48 pm-------29.91-- 43.9----
2024-05-23 09:42 pm-------29.91-- 43.9----
2024-05-23 09:36 pm-------29.91-- 43.9----
2024-05-23 09:30 pm-------29.91-- 43.9----
2024-05-23 09:24 pm-------29.91-- 43.9----
2024-05-23 09:18 pm-------29.91-- 43.9----
2024-05-23 09:12 pm-------29.92-- 43.9----
2024-05-23 09:06 pm-------29.92-- 43.9----
2024-05-23 09:00 pm-------29.92-0.03- 43.9----
2024-05-23 08:54 pm-------29.92-- 43.9----
2024-05-23 08:48 pm-------29.93-- 43.9----
2024-05-23 08:42 pm-------29.92-- 43.9----
2024-05-23 08:36 pm-------29.92-- 43.9----
2024-05-23 08:30 pm-------29.93-- 43.9----
2024-05-23 08:24 pm-------29.93-- 43.9----
2024-05-23 08:18 pm-------29.93-- 43.9----
2024-05-23 08:12 pm-------29.93-- 43.9----
2024-05-23 08:06 pm-------29.93-- 43.9----
2024-05-23 08:00 pm-------29.93-0.04- 43.7----
2024-05-23 07:54 pm-------29.93-- 43.9----
2024-05-23 07:48 pm-------29.93-- 43.9----
2024-05-23 07:42 pm-------29.94-- 43.9----
2024-05-23 07:36 pm-------29.94-- 43.9----
2024-05-23 07:30 pm-------29.94-- 43.9----
2024-05-23 07:24 pm-------29.94-- 43.9----
2024-05-23 07:18 pm-------29.95-- 43.9----
2024-05-23 07:12 pm-------29.94-- 43.9----
2024-05-23 07:06 pm-------29.94-- 43.9----
2024-05-23 07:00 pm-------29.94-0.01- 43.9----
2024-05-23 06:54 pm-------29.94-- 44.1----
2024-05-23 06:48 pm-------29.94-- 44.1----
2024-05-23 06:42 pm-------29.93-- 43.9----
2024-05-23 06:36 pm-------29.94-- 43.9----
2024-05-23 06:30 pm-------29.94-- 43.9----
2024-05-23 06:24 pm-------29.95-- 43.9----
2024-05-23 06:18 pm-------29.95-- 43.7----
2024-05-23 06:12 pm-------29.94-- 43.9----
2024-05-23 06:06 pm-------29.94-- 43.9----
2024-05-23 06:00 pm-------29.95-0.02- 43.9----
2024-05-23 05:54 pm-------29.95-- 43.9----
2024-05-23 05:48 pm-------29.94-- 43.7----
2024-05-23 05:42 pm-------29.95-- 43.7----
2024-05-23 05:36 pm-------29.95-- 43.7----
2024-05-23 05:30 pm-------29.95-- 43.7----
2024-05-23 05:24 pm-------29.95-- 43.9----
2024-05-23 05:18 pm-------29.95-- 43.9----
2024-05-23 05:12 pm-------29.95-- 43.9----
2024-05-23 05:06 pm-------29.96-- 43.9----
2024-05-23 05:00 pm-------29.96+0.00- 43.7----
2024-05-23 04:54 pm-------29.96-- 43.7----
2024-05-23 04:48 pm-------29.96-- 43.7----
2024-05-23 04:42 pm-------29.96-- 43.7----
2024-05-23 04:36 pm-------29.96-- 43.7----
2024-05-23 04:30 pm-------29.95-- 43.7----
2024-05-23 04:24 pm-------29.95-- 43.7----
2024-05-23 04:18 pm-------29.96-- 43.7----
2024-05-23 04:12 pm-------29.96-- 43.7----
2024-05-23 04:06 pm-------29.96-- 43.7----
2024-05-23 04:00 pm-------29.96+0.00- 43.7----
2024-05-23 03:54 pm-------29.95-- 43.7----
2024-05-23 03:48 pm-------29.95-- 43.7----
2024-05-23 03:42 pm-------29.96-- 43.7----
2024-05-23 03:36 pm-------29.96-- 43.7----
2024-05-23 03:30 pm-------29.96-- 43.7----
2024-05-23 03:24 pm-------29.96-- 43.7----
2024-05-23 03:18 pm-------29.96-- 43.7----
2024-05-23 03:12 pm-------29.96-- 43.7----
2024-05-23 03:06 pm-------29.96-- 43.7----
2024-05-23 03:00 pm-------29.96+0.01- 43.7----
2024-05-23 02:54 pm-------29.96-- 43.7----
2024-05-23 02:48 pm-------29.97-- 43.7----
2024-05-23 02:42 pm-------29.97-- 43.7----
2024-05-23 02:36 pm-------29.97-- 43.7----
2024-05-23 02:30 pm-------29.97-- 43.7----
2024-05-23 02:24 pm-------29.97-- 43.7----
2024-05-23 02:18 pm-------29.97-- 43.7----
2024-05-23 02:12 pm-------29.97-- 43.7----
2024-05-23 02:06 pm-------29.96-- 43.7----
2024-05-23 02:00 pm-------29.96+0.00- 43.7----
2024-05-23 01:54 pm-------29.96-- 43.7----
2024-05-23 01:48 pm-------29.95-- 43.7----
2024-05-23 01:42 pm-------29.95-- 43.7----
2024-05-23 01:36 pm-------29.95-- 43.7----
2024-05-23 01:30 pm-------29.95-- 43.7----
2024-05-23 01:24 pm-------29.95-- 43.7----
2024-05-23 01:18 pm-------29.95-- 43.7----
2024-05-23 01:12 pm-------29.95-- 43.7----
2024-05-23 01:06 pm-------29.95-- 43.7----
2024-05-23 01:00 pm-------29.96+0.00- 43.7----
2024-05-23 12:54 pm-------29.95-- 43.7----
2024-05-23 12:48 pm-------29.95-- 43.7----
2024-05-23 12:42 pm-------29.96-- 43.7----
2024-05-23 12:36 pm-------29.95-- 43.7----
2024-05-23 12:30 pm-------29.95-- 43.7----
2024-05-23 12:24 pm-------29.95-- 43.7----
2024-05-23 12:18 pm-------29.95-- 43.7----
2024-05-23 12:12 pm-------29.95-- 43.7----
2024-05-23 12:06 pm-------29.95-- 43.7----
2024-05-23 12:00 pm-------29.96+0.01- 43.7----
2024-05-23 11:54 am-------29.96-- 43.7----
2024-05-23 11:48 am-------29.96-- 43.7----
2024-05-23 11:42 am-------29.96-- 43.7----
2024-05-23 11:36 am-------29.96-- 43.7----
2024-05-23 11:30 am-------29.96-- 43.7----
2024-05-23 11:24 am-------29.96-- 43.7----
2024-05-23 11:18 am-------29.96-- 43.7----
2024-05-23 11:12 am-------29.96-- 43.7----
2024-05-23 11:06 am-------29.96-- 43.7----
2024-05-23 11:00 am-------29.96+0.02- 43.7----
2024-05-23 10:54 am-------29.96-- 43.7----